STARLINK-3678, 52121

Orbit data source: Space-Track

STARLINK-3678, 52121 is a payload satellite owned by SpaceX/Seattle (US) in LEO that was launched on Sat, 19 Mar 2022 UTC via an FALCON 9 launch vehicle from the Air Force Eastern Test Range (AFETR). Payload-class satellites include a variety of spacecraft equipped with specific instruments for various scientific and technological missions. These include communications satellites like Starlink; space stations such as the ISS; scientific satellites like the Hubble; Earth observation satellites from companies like Planet Labs, Umbra, and HawkEye 360; GPS; miniature CubeSats for education and research; and military/defense satellites.

Loading next visibility...
Identifier
52121, 2022-029AK
Orbit
LEO
Country
Flag of USUS
Related business
Manufacturer
SpaceX/Seattle
Mission
Operational Commercial Communications
Bus & Motor
STARLINK, Unknown motor
Mass
297 kg wet, ~275 kg dry
Launch date (UTC)
2022-03-19 (4 years ago)
Launch vehicle
FALCON 9
Launch site
Air Force Eastern Test Range (AFETR)
Object type
Payload
Rocket body
Debris
Shape & HBR
Box + 1 Pan, 10.1 m
Radar Cross Section
13.562 m², Large (>1 m²)

Expand to show TLE details & history
Last TLE update: 2 days ago

TLE from 2 days ago
0 STARLINK-3678
1 52121U 22029AK  26171.17427764 -.00000197  00000-0  57327-5 0  9998
2 52121  53.1607 328.9341 0001432  84.1549 275.9606 15.08837610236393
Epoch: 2026-06-20T04:10Z
TLE epoch observation values (Epoch: 2026-06-20T04:10:57.588Z)
Latitude
0.00003°
Longitude
-2.19852°
Altitude
540.539 km
Speed
7.593 km/s
True Right ascension
21h 55m 44s
True Declination
0° 00' 00"
Sunlit
Object was in full shadow at epoch
Visualization orbit readout
Latitude
Unknown
Longitude
Unknown
Altitude
Unknown
Speed
Unknown
Apparent Right ascension
Unknown
Apparent Declination
Unknown
Sunlit
N/A
Visualization observer readout
Local Sidereal Time
21:25:33
Azimuth
Unknown
Elevation
Unknown
Doppler factor
Unknown
Orbital elements
Apogee altitude
540.995 km
Perigee altitude
539.014 km
Semi-major axis
6,918.142 km
Eccentricity
0.00014
Inclination
53.1607°
RAAN
328.9341°
Arg. of periapsis
84.1549°
True anomaly
275.94428°
Mean anomaly
275.9606°
Eccentric anomaly
275.95244°
Mean motion
3.77189 °/min
Orbital period
95.44 mins
BSTAR
0.0000057327
Loading maneuver chart data...
Computing Atmospheric mass density...
Loading historical data...
Loading historical data...
Loading historical data...
Loading historical data...
Loading historical data...
Loading historical data...
Loading historical data...

Documentation

Showing up to 5 results
|